RH
95 93 87 77 76 90 85 88 91 93 92 90 88 81 84 79 65 81 88 78 86 89 83 70 68 75 78 68 90 86 80 87 92 96 89 85 89 90 90 69 87 90 94 98 92 92 91 92 81 85 98 92 91 94
79 76 66 79 79 87 96 89 84 90 93 95 94 94 84 86 67 65 73 76 91 86 92 88 81 81 82 83 79 82 92 93 98 80 85 90 95 95 86 94 71 92 82 82 68 85 99 95 96 84 80 88 97 94
71 63 61 65 72 87 90 91 90 92 94 94 95 94 94 91 65 64 81 78 83 80 81 82 77 76 75 72 79 83 85 100 95 100 99 95 98 88 91 84 69 67 76 88 76 97 94 92 75 57 66 76 95 97
59 64 67 72 76 76 70 66 67 72 87 93 94 94 95 95 88 73 89 86 83 82 89 82 61 70 73 78 81 85 89 95 100 100 99 99 95 77 91 85 87 78 91 87 77 96 94 75 48 62 71 82 79 66
60 60 60 64 72 76 83 93 96 96 97 96 96 95 95 86 92 89 97 91 73 87 94 89 69 74 77 77 83 98 98 95 99 99 99 97 93 91 93 90 95 82 85 96 97 77 83 56 55 58 68 64 64 81
62 59 61 66 81 91 84 73 67 70 73 79 91 92 56 60 75 92 82 95 76 80 89 90 72 77 81 78 98 95 85 92 99 92 97 95 99 100 100 94 86 74 65 60 82 54 54 49 47 48 59 60 67 78
59 54 63 84 87 68 61 68 80 87 92 93 79 57 67 78 94 81 97 99 74 85 93 89 91 81 68 86 89 86 88 96 98 97 97 95 98 97 98 95 86 81 76 53 55 67 55 47 65 62 62 65 66 67
54 67 87 82 66 68 88 92 94 93 86 91 66 61 87 85 88 94 94 84 73 88 89 97 90 84 62 90 93 86 87 93 96 98 96 98 95 98 97 83 87 86 84 78 74 70 77 76 71 75 66 68 87 92
64 83 82 66 44 39 56 85 90 82 60 61 63 81 85 76 93 96 100 88 94 98 97 91 76 92 76 89 93 96 93 92 97 97 97 94 88 91 83 85 90 88 81 82 82 83 85 84 88 87 88 88 92 95
60 54 52 50 42 48 79 93 94 81 59 65 70 76 96 98 78 95 91 90 84 95 86 82 85 93 89 90 91 94 94 92 96 97 94 98 91 86 93 92 94 92 95 87 79 85 90 82 87 88 93 90 96 96
43 40 41 52 62 67 93 94 93 65 66 74 96 95 99 78 95 98 95 96 97 94 88 93 91 95 91 95 94 93 91 84 99 93 96 97 98 95 90 88 94 90 85 89 88 88 86 92 95 96 97 95 96 95
54 54 52 64 80 89 92 91 89 73 75 88 97 99 89 93 95 89 94 95 98 90 91 94 96 95 83 84 87 97 97 97 97 92 95 97 95 88 95 90 95 96 92 94 94 97 97 98 98 99 98 97 95 87
64 70 72 76 88 94 93 87 80 76 68 82 83 77 86 90 94 96 88 92 95 90 91 95 97 96 85 89 98 98 97 96 91 97 93 93 95 96 99 98 96 89 86 86 89 86 86 87 87 86 88 83 81 81
93 88 94 93 95 88 83 85 83 78 76 96 97 94 91 96 97 91 90 88 91 89 94 93 94 97 81 97 95 97 90 97 97 99 92 98 99 99 96 93 91 93 89 84 84 81 82 81 81 83 84 87 87 87
92 87 92 88 88 81 86 91 88 83 79 98 95 98 95 86 93 93 96 93 92 86 90 94 95 95 97 96 97 95 98 98 92 89 95 97 96 94 90 86 88 86 84 82 75 80 80 82 85 87 84 82 83 85
90 92 78 79 74 74 74 94 91 78 99 94 92 95 94 98 95 99 98 95 92 83 91 95 97 97 95 97 97 94 96 93 84 93 98 93 87 86 78 74 72 72 74 78 80 82 82 83 84 82 77 77 81 87
91 98 84 82 84 86 85 99 99 99 93 94 94 93 91 94 96 92 94 92 68 87 97 97 96 93 93 97 97 90 93 83 96 97 89 81 82 88 85 72 73 82 86 88 87 86 87 85 80 77 79 80 79 81
99 97 92 90 93 99 100 98 99 98 97 91 89 86 95 91 90 87 92 88 84 91 97 96 94 96 95 99 86 78 94 96 82 78 84 92 89 86 90 91 91 94 96 93 92 86 82 81 85 77 77 75 80 85
99 100 100 100 100 100 99 99 99 97 89 94 90 91 94 95 82 68 65 72 70 78 98 97 96 96 88 88 86 98 94 86 84 88 93 96 94 93 91 93 90 96 92 93 82 77 90 81 73 69 74 79 89 88
98 98 96 98 100 100 99 99 99 98 98 91 95 90 93 93 84 83 83 94 94 97 96 96 93 93 94 93 93 93 92 93 92 92 93 92 96 95 96 95 93 92 85 76 75 74 83 80 75 76 81 87 87 84
96 94 95 98 100 99 100 98 98 97 96 98 96 95 93 97 100 97 98 94 97 96 96 95 94 94 95 96 96 96 96 95 93 94 94 92 95 97 96 93 89 80 87 81 86 89 80 82 83 88 95 92 92 92
98 98 100 100 100 99 99 98 96 98 98 96 95 96 100 99 90 96 96 96 100 95 95 94 93 93 91 94 96 97 98 97 97 97 95 95 90 85 77 87 85 94 92 88 91 91 88 87 91 95 93 96 96 96
90 90 100 99 98 98 95 99 98 97 97 96 96 97 96 96 96 95 97 96 96 95 96 96 96 96 96 97 96 97 98 98 95 90 81 78 78 77 81 87 85 94 97 86 89 92 88 85 86 96 90 99 100 100
99 100 98 97 95 96 96 95 95 95 96 95 95 95 95 96 95 96 97 96 96 95 94 96 96 94 94 92 87 82 89 87 86 85 84 88 89 87 89 88 88 89 94 86 88 99 90 94 92 95 100 100 100 100
97 96 94 93 94 93 94 93 95 95 94 91 96 95 95 96 96 96 97 97 95 95 94 95 87 79 89 87 77 78 84 92 98 98 82 87 91 95 96 92 89 86 87 92 94 97 98 98 99 100 100 100 100 100
95 95 96 87 83 91 97 98 96 97 96 96 97 89 97 98 96 100 98 97 96 94 94 94 92 88 81 79 84 86 82 76 82 96 80 79 86 98 100 100 100 95 83 98 99 100 100 100 100 100 100 100 96 97
95 95 85 55 81 88 97 96 90 98 100 100 96 90 99 100 100 100 96 97 97 94 83 80 82 89 87 77 69 67 68 72 80 82 78 73 72 79 93 100 100 88 91 92 96 100 100 100 100 100 100 100 100 100
98 84 80 79 98 99 100 100 100 100 100 96 91 92 98 100 100 100 99 95 76 71 68 64 63 63 62 60 62 63 63 69 73 76 73 74 73 78 78 78 80 100 98 91 95 100 100 100 100 100 100 100 98 92
95 85 88 89 96 97 100 100 99 99 93 96 100 97 92 98 94 96 96 76 62 64 65 61 57 58 57 60 62 64 71 79 92 100 100 94 88 83 83 93 92 85 81 85 86 100 100 100 100 100 100 100 99 87
93 94 93 94 97 90 97 98 98 95 85 97 98 96 96 94 90 89 91 71 64 58 56 60 62 67 64 66 66 67 74 79 83 92 100 95 96 97 92 86 82 79 90 100 100 95 94 96 90 94 91 91 93 93
94 96 94 95 97 94 99 82 87 90 95 100 98 100 100 97 81 77 86 75 57 60 64 61 55 56 63 62 67 89 94 87 95 98 100 100 100 97 86 83 84 88 100 100 100 100 100 100 100 100 100 100 100 100
94 97 93 90 92 95 82 95 97 98 98 100 100 100 100 100 100 80 73 74 70 68 68 66 70 58 57 67 73 81 86 88 88 90 96 96 97 90 82 95 98 100 100 100 100 100 100 100 100 100 100 100 100 100
94 98 96 98 92 86 94 90 89 92 94 99 100 100 100 100 99 73 57 54 53 48 48 49 50 55 63 71 75 78 84 83 85 100 100 100 91 88 84 72 93 100 99 98 97 99 100 100 100 100 100 100 100 100
Wind_Speed
18 17 16 16 14 13 16 16 16 17 18 19 19 19 20 20 22 14 7 18 5 2 4 8 7 4 5 3 2 2 4 3 2 1 2 3 2 2 3 3 5 6 5 4 3 3 7 3 1 3 2 4 4 3
17 16 16 15 15 14 13 15 16 16 16 16 16 17 18 17 16 16 4 15 8 2 3 8 4 4 3 4 3 3 2 1 3 3 2 3 3 0 2 3 4 2 6 3 2 1 5 5 9 5 4 4 2 1
15 14 14 13 12 12 13 14 14 15 15 16 17 17 17 16 15 15 9 13 7 4 4 2 2 2 4 3 2 3 1 4 2 1 2 3 4 1 2 4 2 3 3 0 4 5 8 6 5 4 3 2 2 5
14 13 12 11 11 12 14 15 15 15 16 17 17 17 16 15 14 12 6 10 6 4 2 2 0 2 3 2 1 5 6 5 4 1 2 3 2 0 2 3 1 3 2 4 3 9 6 3 5 6 4 0 1 2
13 12 12 11 12 13 14 15 15 16 16 16 17 18 17 16 13 7 1 4 10 3 3 4 14 2 2 2 3 2 1 2 2 2 3 3 3 2 3 1 3 2 3 2 1 5 3 3 6 5 3 3 4 2
12 12 11 11 12 13 13 15 16 17 18 18 19 19 18 15 8 1 2 2 7 7 2 4 2 2 2 4 3 1 2 2 1 2 3 3 1 1 2 2 3 2 1 3 3 4 2 3 4 6 2 3 4 3
11 10 10 11 11 13 14 16 17 18 19 20 22 19 14 6 3 1 2 2 5 6 2 4 3 1 1 2 2 0 2 2 2 2 2 2 1 1 2 2 3 2 1 6 5 2 2 3 1 7 5 5 9 11
9 9 9 11 13 14 15 16 18 20 21 21 23 16 3 5 4 1 3 8 12 2 1 2 3 2 4 2 2 1 2 2 2 2 2 1 1 2 3 6 1 2 3 3 4 3 3 4 7 5 2 6 5 4
10 10 11 13 14 15 16 17 19 22 24 23 17 5 2 1 2 3 11 4 2 0 1 1 2 2 2 2 2 1 2 2 1 2 2 0 3 4 6 4 2 4 4 4 2 3 4 1 4 4 2 4 3 4
11 12 13 15 15 16 16 17 19 21 21 16 6 3 1 1 12 6 1 1 1 1 2 2 0 2 2 2 3 2 1 2 2 2 1 2 3 1 3 3 1 3 4 4 5 6 8 10 7 7 5 6 6 7
13 13 14 15 16 16 17 19 17 20 11 8 8 2 6 11 3 1 1 1 1 2 3 3 2 1 1 1 2 0 3 2 2 3 2 3 3 2 6 4 4 6 8 7 5 1 3 6 7 6 5 6 8 11
15 15 15 16 15 15 15 14 14 13 13 10 11 10 5 2 1 2 1 1 2 3 2 2 3 3 1 1 2 2 2 0 5 1 1 3 3 3 3 3 4 8 11 9 11 9 9 8 10 9 10 13 14 16
16 16 16 15 15 15 15 9 9 12 18 4 1 2 1 2 3 4 3 3 2 3 3 2 2 3 2 2 2 1 4 5 1 2 3 4 3 1 1 2 1 7 14 14 12 13 13 13 13 15 14 15 16 17
17 18 18 18 17 16 6 7 9 12 5 2 2 5 4 3 4 4 3 2 2 1 2 2 1 3 3 3 3 3 4 0 3 3 5 3 5 4 3 1 2 4 7 5 5 8 9 10 12 12 14 15 16 15
18 19 20 22 15 7 7 8 10 8 3 2 2 5 6 4 2 2 1 2 2 1 1 0 1 1 3 4 3 2 3 4 5 4 3 4 5 4 2 2 4 3 3 4 8 9 10 11 12 14 16 18 14 16
20 20 14 11 7 9 8 11 10 3 2 3 5 5 3 2 3 1 2 3 3 3 2 1 3 3 5 3 3 7 3 6 4 3 2 4 5 4 3 4 6 8 9 10 10 10 12 14 13 16 18 14 18 20
19 15 17 15 17 18 16 12 7 6 4 5 5 3 6 4 4 4 4 4 11 4 3 3 5 8 1 4 4 4 5 3 2 2 2 5 6 5 5 6 6 7 8 9 11 13 14 15 16 15 11 16 19 20
26 29 27 23 22 22 18 9 6 5 8 7 6 7 3 5 4 4 4 3 4 4 3 5 3 7 5 5 5 6 3 1 3 4 4 5 8 6 4 2 4 5 4 6 7 12 12 13 11 11 14 17 19 18
29 28 27 26 23 10 5 6 8 4 9 3 5 4 3 3 7 16 10 10 14 3 2 3 5 3 5 2 4 3 4 4 3 3 2 9 8 6 4 4 6 5 7 7 7 9 7 10 12 14 15 17 16 17
29 29 29 27 20 6 4 3 8 5 4 5 2 5 4 4 4 5 6 3 4 2 4 4 3 3 3 5 5 4 5 6 4 3 2 5 9 9 8 6 5 8 9 8 10 11 10 9 10 13 16 18 18 18
28 27 22 20 12 14 6 3 4 3 3 4 2 3 4 1 2 3 3 4 3 3 1 5 5 4 11 13 14 12 12 11 4 3 2 3 8 8 9 10 8 8 7 10 10 9 10 10 13 15 15 16 18 18
28 21 19 18 8 7 5 11 4 1 3 3 4 4 3 3 3 3 3 2 4 4 3 3 4 4 6 8 10 12 12 11 10 9 10 9 5 7 9 9 9 7 7 8 8 7 10 13 15 15 16 17 20 21
21 15 10 8 7 6 4 2 5 2 4 3 3 2 1 3 4 5 4 3 2 7 7 6 8 8 7 8 9 11 14 12 9 9 10 9 9 9 10 9 11 10 7 9 9 8 11 13 17 16 19 18 19 20
7 5 6 4 7 5 5 5 3 4 4 3 3 4 3 3 3 3 3 2 2 5 7 9 9 6 5 8 8 9 11 12 10 10 10 10 9 9 11 13 14 13 10 11 12 9 13 15 17 19 18 18 20 20
3 7 5 8 4 5 5 7 4 3 2 3 3 3 4 3 2 3 2 2 1 2 4 8 8 7 3 3 7 8 9 10 10 11 16 12 13 15 14 14 15 14 12 11 10 13 16 17 20 21 20 20 19 17
6 7 6 6 3 5 4 5 5 6 5 6 5 5 3 3 3 2 2 2 1 2 3 5 4 3 4 7 6 8 12 15 15 12 18 12 17 17 14 11 11 13 8 9 13 18 17 18 20 22 22 20 20 21
4 4 3 6 2 3 4 3 4 3 4 4 4 5 4 4 1 1 1 2 1 1 2 2 1 2 4 9 9 11 13 13 13 17 22 21 18 14 14 17 16 15 17 17 18 19 20 22 21 21 22 21 20 18
2 3 2 5 3 1 1 3 3 3 2 3 3 3 3 4 2 1 1 3 2 2 2 2 2 3 5 7 10 14 17 17 20 20 19 15 13 15 13 14 17 17 19 21 20 20 20 21 22 25 26 20 15 16
2 3 1 4 4 2 1 2 2 1 1 1 2 3 4 2 2 3 3 4 5 5 4 4 3 5 9 10 14 16 18 18 17 7 8 9 15 19 21 20 25 26 25 25 23 21 22 24 25 22 13 10 16 20
3 3 3 2 0 3 3 2 2 2 2 2 3 5 4 4 5 7 8 9 10 11 9 8 10 12 15 17 20 23 24 18 16 17 10 11 18 28 31 30 30 30 29 27 27 26 22 20 20 20 20 23 23 21
1 2 2 2 3 3 1 7 5 2 2 1 2 2 3 4 7 8 12 14 15 15 16 17 16 16 19 24 23 18 20 23 21 24 24 26 29 29 31 32 31 32 32 29 25 23 23 23 23 22 21 22 23 20
3 2 1 3 4 3 7 4 2 1 2 1 2 1 3 2 3 3 6 14 19 21 22 19 20 22 21 24 26 23 26 27 27 28 27 27 28 26 27 31 27 25 25 25 23 21 20 22 22 20 21 22 22 23
2 1 1 2 4 5 4 6 4 5 2 2 3 2 2 2 5 5 6 13 20 25 26 23 22 23 23 24 27 27 24 24 24 24 23 21 24 26 25 23 25 17 13 13 15 17 20 21 21 21 20 20 22 24
Wind_Direction
90 84 74 64 63 54 44 39 37 30 28 28 26 25 24 23 21 34 37 13 24 272 321 24 14 348 340 357 300 314 351 3 332 300 266 274 332 335 0 158 173 168 173 203 216 239 266 334 267 77 57 55 124 189
85 79 73 61 56 51 40 34 30 25 22 20 19 18 18 17 15 20 12 355 360 265 307 316 324 60 26 336 307 298 268 295 318 277 301 316 282 238 217 268 50 297 194 209 186 164 78 54 103 154 161 173 245 309
80 73 66 56 47 37 30 25 20 16 13 12 11 10 8 6 5 10 358 352 2 348 292 262 207 211 326 7 285 273 317 356 13 360 318 291 278 56 245 256 353 22 30 83 32 115 118 127 158 169 163 204 186 259
72 64 56 44 33 24 17 11 7 5 2 1 359 355 353 352 351 2 10 26 15 299 319 275 192 321 293 359 341 241 293 307 302 291 283 278 254 338 273 256 151 227 118 208 235 108 109 163 189 111 79 163 325 351
55 45 38 31 23 17 11 5 2 360 356 352 347 344 339 336 332 344 2 61 35 26 305 296 314 152 274 318 348 303 277 255 242 247 223 242 259 334 258 292 251 220 215 131 61 165 138 135 111 108 76 17 4 347
39 33 27 21 15 10 4 357 351 349 348 345 340 333 332 330 327 261 195 14 19 7 316 301 342 220 205 304 16 6 287 259 246 249 245 278 91 259 275 266 247 81 59 147 167 78 66 32 71 59 10 354 333 314
22 19 18 14 6 360 357 353 351 348 343 340 338 338 342 2 58 47 70 357 7 6 345 298 305 221 297 241 145 290 281 274 234 269 249 270 163 274 277 254 226 182 108 101 77 75 64 68 328 337 322 344 328 304
12 14 11 0 358 357 357 352 348 344 339 335 333 336 23 69 76 123 298 317 316 188 266 273 272 326 4 295 330 160 296 233 227 274 304 254 323 220 258 251 194 155 94 63 94 68 187 279 314 309 33 354 329 300
5 360 352 350 350 348 350 348 344 341 339 329 327 326 206 186 36 303 319 359 357 93 256 217 280 290 324 262 214 239 156 280 139 239 233 245 234 231 239 254 214 214 177 185 344 317 6 352 315 3 26 340 298 292
347 343 337 340 343 342 341 340 339 338 339 335 340 12 354 317 321 322 325 257 202 29 227 238 28 265 83 2 293 356 187 278 290 230 85 223 259 246 5 321 303 36 73 53 34 5 357 344 341 317 294 283 270 279
332 333 333 332 334 337 337 337 339 348 349 355 357 314 299 327 343 228 235 77 41 257 201 235 209 236 318 113 280 72 307 283 273 256 150 250 264 320 329 14 347 64 79 79 104 124 282 260 291 306 304 287 306 316
325 325 324 326 326 330 332 336 338 353 343 306 287 299 296 319 324 69 235 338 208 233 195 186 213 189 267 36 266 273 253 114 251 243 259 263 234 244 360 329 343 50 66 63 52 27 5 354 342 324 325 328 329 326
314 314 314 315 318 319 319 316 330 335 328 308 237 275 5 262 4 155 231 275 267 198 209 184 273 171 167 226 261 259 246 233 28 237 238 224 194 203 236 266 80 51 44 30 21 13 359 354 353 348 336 342 341 335
312 313 313 309 306 312 285 298 325 341 311 35 35 304 180 237 238 201 207 208 237 140 147 159 240 173 185 219 216 237 237 244 260 242 237 208 191 197 167 177 141 50 55 18 4 354 353 348 343 340 335 334 332 333
306 306 303 305 299 277 275 292 321 328 264 251 124 243 230 240 262 230 120 349 233 190 103 95 291 174 189 242 205 261 260 245 221 232 214 165 175 154 116 43 31 29 34 20 5 356 340 338 337 333 334 330 336 336
305 304 297 306 301 288 287 287 302 243 239 228 227 254 258 322 275 199 191 244 184 160 90 72 248 229 217 211 209 215 209 226 240 202 154 133 138 112 59 20 7 14 5 357 357 351 338 332 335 331 332 342 344 337
302 266 287 284 290 291 287 272 192 190 234 222 233 209 240 276 241 242 179 220 162 149 188 206 221 218 218 223 213 214 220 236 150 99 81 80 81 69 41 7 11 14 6 353 351 348 334 331 337 341 344 343 339 332
282 283 289 294 292 280 267 234 205 223 233 225 234 219 217 209 229 241 210 152 145 205 175 224 214 214 214 210 236 245 202 137 75 99 99 114 111 103 66 15 11 348 356 351 347 340 336 343 345 340 340 337 331 330
291 291 291 289 277 257 231 218 207 241 224 220 230 206 213 239 232 245 252 200 207 202 200 209 239 226 232 254 304 30 35 26 17 19 71 85 82 76 25 19 346 356 349 334 344 326 339 346 344 343 341 331 325 334
292 293 289 290 279 226 248 231 196 234 225 224 194 203 210 215 224 228 233 160 149 179 218 232 248 5 10 30 18 39 33 15 13 356 83 50 36 22 10 359 357 339 327 343 342 335 336 356 347 342 333 332 336 327
302 300 298 288 256 224 244 219 229 227 229 221 226 185 230 117 243 206 196 147 182 218 359 40 35 54 61 46 35 42 31 26 33 28 2 333 7 2 350 336 355 337 3 351 335 340 346 340 336 328 333 331 325 328
288 286 272 249 235 227 234 216 226 242 213 224 197 193 230 234 225 209 137 109 42 31 16 5 4 3 43 44 50 47 27 15 12 4 3 7 350 345 333 334 347 338 347 332 327 352 343 330 331 341 335 329 331 327
298 275 247 227 232 220 262 301 229 211 267 332 342 273 275 11 6 336 65 55 79 24 13 9 358 37 53 60 48 39 25 13 6 359 350 348 337 333 332 337 327 318 321 319 319 324 327 325 334 336 334 330 327 323
315 309 334 17 360 355 331 2 1 344 351 6 335 293 352 338 318 70 82 63 76 36 24 13 11 2 29 35 31 24 13 1 349 344 346 336 325 322 323 315 310 303 298 304 306 310 318 314 321 325 324 322 322 315
302 4 15 4 16 339 360 344 335 360 335 277 277 350 357 328 8 48 68 104 75 39 12 5 10 17 26 8 10 8 6 0 344 328 330 329 313 309 307 306 308 298 298 297 302 305 306 314 312 313 313 315 309 324
61 22 26 355 322 342 343 315 339 357 2 349 10 324 306 315 46 44 52 44 47 27 10 5 353 355 20 13 344 335 335 336 329 312 318 316 302 295 285 288 293 295 303 295 306 316 300 306 307 304 299 305 312 324
53 343 341 44 315 314 305 344 9 24 17 15 343 324 330 319 31 70 121 45 16 303 307 322 310 320 303 314 323 324 324 323 309 305 315 318 314 306 286 269 274 295 309 305 297 296 292 296 294 292 287 292 293 309
120 34 360 306 324 351 306 342 1 10 355 325 1 314 253 216 255 245 221 264 270 244 249 258 272 308 320 325 327 324 331 334 331 330 330 324 324 311 308 308 307 305 302 302 304 300 295 289 283 284 282 281 287 319
31 336 323 320 322 329 211 168 250 273 22 37 192 261 268 284 250 243 259 245 226 219 225 233 257 302 317 319 331 337 333 329 310 312 314 313 318 313 320 307 308 311 311 312 311 304 301 297 289 293 309 288 307 312
315 353 13 346 339 266 243 145 247 344 283 239 277 304 282 263 268 267 247 232 224 218 227 257 278 290 298 309 316 328 337 331 317 293 280 295 299 305 311 311 311 311 311 309 310 312 311 308 308 305 300 303 302 303
359 11 357 263 256 258 262 314 288 248 256 263 232 188 257 296 303 274 243 235 231 238 255 268 279 292 297 306 305 307 317 327 316 315 310 302 302 304 306 308 309 307 305 304 302 296 298 301 300 300 295 297 301 300
18 106 98 296 286 300 12 5 303 318 307 345 274 204 309 337 280 266 244 225 230 242 248 258 270 283 307 320 321 308 314 314 317 317 315 310 310 312 306 302 306 305 302 297 293 291 291 290 293 288 288 297 299 301
31 37 321 330 314 330 346 350 351 333 317 288 275 220 231 213 249 272 259 242 238 246 251 259 276 289 298 316 322 321 318 319 319 316 314 314 311 313 317 311 313 326 338 318 298 290 285 286 286 290 295 294 296 301